Date,TemperatureHighF,TemperatureAvgF,TemperatureLowF,DewpointHighF,DewpointAvgF,DewpointLowF,HumidityHigh,HumidityAvg,HumidityLow,PressureMaxIn,PressureMinIn,WindSpeedMaxMPH,WindSpeedAvgMPH,GustSpeedMaxMPH,PrecipitationSumIn
2013-4-1,62,58,55,58,56,54,96,93,85,29.87,29.79,19,4,19,0.01
2013-4-2,58,51,48,56,40,34,96,68,53,30.12,29.88,29,8,29,0.01
2013-4-3,53,49,47,49,39,31,91,70,49,30.29,30.09,25,8,25,0.00
2013-4-4,60,51,47,59,44,32,97,77,51,30.33,29.77,23,11,24,0.95
2013-4-5,63,52,47,62,50,44,98,92,82,29.98,29.66,25,10,25,1.31
2013-4-6,53,50,46,51,45,42,97,83,70,30.28,29.97,29,11,29,0.01
2013-4-7,66,58,50,56,51,45,92,79,60,30.26,30.15,13,4,13,0.00
2013-4-8,70,63,57,61,58,53,93,83,73,30.19,30.10,18,4,18,0.00
2013-4-9,69,64,60,63,60,58,94,89,81,30.20,30.08,20,5,20,0.00
2013-4-10,70,64,60,64,61,58,97,91,80,30.12,29.98,23,7,23,0.00
2013-4-11,73,66,60,68,63,59,96,91,82,30.01,29.88,20,6,20,0.01
2013-4-12,68,66,63,67,64,62,98,95,91,29.89,29.68,22,7,22,0.57
2013-4-13,66,60,54,64,54,46,98,81,62,30.00,29.71,28,8,28,0.58
2013-4-14,71,61,54,58,54,41,95,78,38,30.11,29.99,15,3,15,0.01
2013-4-15,68,62,60,61,58,53,96,84,76,30.18,29.98,19,5,24,0.09
2013-4-16,71,65,60,64,61,58,97,87,76,30.26,30.16,13,4,13,0.38
2013-4-17,72,67,59,64,61,57,94,81,69,30.22,30.14,12,2,12,0.00
2013-4-18,75,68,62,64,62,60,93,82,67,30.22,30.08,17,3,17,0.00
2013-4-19,75,70,66,70,67,64,96,92,85,30.09,29.88,26,8,26,0.07
2013-4-20,69,60,56,68,56,49,98,85,72,30.24,29.83,29,10,29,1.65
2013-4-21,58,55,52,49,46,42,84,71,58,30.44,30.22,33,15,33,0.00
2013-4-22,58,56,54,57,54,49,96,92,84,30.39,30.08,37,21,37,0.43
2013-4-23,58,56,53,56,53,50,97,92,84,30.16,30.03,31,16,31,0.44
2013-4-24,67,61,50,60,56,48,94,85,76,30.18,30.04,19,5,19,0.00
2013-4-25,64,59,54,62,54,46,96,86,73,30.26,30.03,28,9,28,0.01
2013-4-26,60,58,55,52,50,44,85,74,65,30.39,30.24,20,8,20,0.01
2013-4-27,63,60,56,55,52,48,87,76,64,30.37,30.28,18,7,18,0.00
2013-4-28,67,61,54,61,54,45,84,76,67,30.28,30.12,17,5,17,0.00
2013-4-29,66,63,62,64,60,56,96,89,76,30.13,29.97,15,3,15,0.05
2013-4-30,66,64,62,63,62,60,97,93,89,30.09,29.97,16,8,16,0.06